Location: New Plymouth
(39.0670°S, 174.0830°E)
Time: 18:34:21
(UTC+13:00)

COSMOS 2428 - Pass Details

Date: 24 January 2019
Orbit: 845 x 856 km, 71.0° (Epoch: 16 February)

Event Time Altitude Azimuth Distance (km) Brightness Sun altitude
Exits shadow 23:03:03 39° 74° (ENE) 1,273 3.2 -21.6°
Maximum altitude 23:03:07 39° 75° (ENE) 1,273 3.2 -21.7°
Drops below altitude 10° 23:08:25 10° 142° (SE) 2,513 5.3 -22.3°
Sets 23:11:02 0° 149° (SSE) 3,458 6.2 -22.6°
